Total_Precipitation_Accumulation
0.30 0.30 0.32 0.32 0.30 0.29 0.32 0.37 0.40 0.47 0.54 0.61 0.75 0.97 1.24 1.35 1.44 1.40 1.22 1.16 1.28 1.52 1.74 1.71 1.77 1.81 1.70 1.68 1.71 1.92 1.87 1.59 1.35 1.40 1.24 1.04 0.89 1.02 1.06 1.04 1.07 1.08 1.14
0.20 0.19 0.21 0.22 0.22 0.21 0.23 0.28 0.35 0.45 0.52 0.60 0.78 0.94 1.08 1.08 1.26 1.41 1.39 1.30 1.29 1.44 1.58 1.84 1.95 1.89 1.93 2.07 2.08 2.43 2.58 2.12 1.68 1.69 1.83 1.56 1.33 1.07 0.93 0.99 1.01 1.12 1.33
0.21 0.18 0.17 0.16 0.16 0.16 0.17 0.21 0.28 0.39 0.51 0.65 0.88 1.09 1.28 1.36 1.42 1.35 1.43 1.44 1.37 1.41 1.51 1.67 1.83 1.85 1.93 2.03 2.17 2.51 3.00 2.77 2.20 1.93 2.15 1.89 1.67 1.45 1.10 0.96 0.99 1.11 1.34
0.19 0.20 0.19 0.20 0.18 0.17 0.16 0.20 0.28 0.42 0.62 0.83 1.07 1.31 1.52 1.56 1.44 1.48 1.51 1.40 1.34 1.31 1.37 1.52 1.66 1.79 1.81 1.95 2.05 2.17 2.68 3.04 2.72 2.40 2.04 1.70 1.64 1.75 1.54 1.20 1.15 1.19 1.25
0.20 0.20 0.21 0.24 0.24 0.24 0.24 0.32 0.51 0.75 1.00 1.21 1.46 1.73 1.72 1.61 1.51 1.51 1.48 1.43 1.44 1.40 1.40 1.54 1.62 1.64 1.69 1.80 2.13 2.39 2.65 2.86 2.83 2.74 2.54 2.26 1.97 1.64 1.75 1.68 1.45 1.34 1.24
0.26 0.33 0.38 0.44 0.49 0.53 0.66 0.86 1.13 1.32 1.41 1.53 1.68 1.79 1.74 1.75 1.68 1.50 1.40 1.40 1.45 1.51 1.54 1.60 1.61 1.59 1.62 1.73 1.95 2.24 2.45 2.76 2.94 2.83 2.61 2.48 2.35 2.13 1.99 1.77 1.64 1.62 1.42
0.37 0.49 0.64 0.76 0.88 1.01 1.15 1.29 1.47 1.62 1.58 1.55 1.60 1.64 1.63 1.60 1.58 1.52 1.42 1.37 1.39 1.41 1.44 1.54 1.67 1.75 1.77 1.89 2.06 2.20 2.11 2.32 2.70 2.69 2.55 2.45 2.25 2.22 2.26 2.10 1.80 1.67 1.40
0.55 0.66 0.74 0.85 1.02 1.16 1.22 1.24 1.34 1.45 1.43 1.41 1.38 1.35 1.42 1.43 1.37 1.29 1.27 1.31 1.38 1.36 1.30 1.35 1.45 1.59 1.76 1.81 1.86 1.87 1.85 1.97 2.22 2.30 2.46 2.57 2.33 2.19 2.06 1.98 2.03 1.80 1.53
0.83 0.98 1.08 1.20 1.24 1.28 1.34 1.26 1.26 1.32 1.33 1.28 1.19 1.17 1.22 1.28 1.28 1.22 1.22 1.20 1.20 1.12 1.04 1.05 1.09 1.17 1.27 1.35 1.50 1.59 1.71 1.74 1.87 2.03 2.14 2.29 2.38 2.29 2.07 1.98 1.97 1.94 1.76
1.08 1.37 1.61 1.79 1.62 1.35 1.25 1.21 1.14 1.15 1.25 1.24 1.16 1.10 1.17 1.17 1.16 1.18 1.15 1.13 1.12 1.04 0.96 0.93 0.88 0.85 0.84 0.90 1.08 1.27 1.40 1.49 1.65 1.84 1.96 1.98 2.04 2.23 2.18 2.00 1.97 1.90 1.79
1.22 1.37 1.57 1.75 1.66 1.35 1.12 1.14 1.16 1.14 1.13 1.12 1.13 1.12 1.08 0.97 0.96 1.01 0.99 0.97 0.97 1.01 1.00 0.92 0.86 0.92 0.92 0.90 0.96 1.02 1.08 1.15 1.30 1.44 1.57 1.72 1.98 2.27 2.28 2.22 2.10 1.98 1.84
1.13 1.11 1.16 1.23 1.26 1.12 0.93 0.90 1.05 1.12 1.08 1.04 1.06 1.05 0.95 0.88 0.85 0.83 0.79 0.70 0.67 0.69 0.78 0.87 0.82 0.80 0.83 0.86 0.93 0.95 0.99 1.02 1.11 1.21 1.34 1.52 1.81 2.15 2.36 2.43 2.31 2.15 2.01
1.10 1.07 0.98 0.92 0.95 0.92 0.84 0.81 0.94 1.09 1.14 1.11 0.96 0.86 0.82 0.79 0.77 0.68 0.63 0.59 0.52 0.52 0.57 0.67 0.67 0.76 0.84 0.86 0.89 0.90 0.94 0.96 1.05 1.19 1.25 1.30 1.50 1.70 1.90 2.08 2.20 2.19 2.16
0.79 0.74 0.68 0.64 0.64 0.67 0.70 0.76 0.87 0.96 1.09 1.20 1.10 0.95 0.85 0.78 0.73 0.65 0.60 0.55 0.52 0.55 0.61 0.74 0.78 0.73 0.71 0.76 0.86 0.90 0.86 0.85 0.89 0.97 1.07 1.17 1.21 1.37 1.51 1.62 1.81 2.02 2.26
0.40 0.40 0.39 0.36 0.36 0.37 0.38 0.47 0.61 0.76 0.96 1.17 1.18 1.03 0.95 0.87 0.74 0.68 0.66 0.62 0.65 0.61 0.63 0.73 0.84 0.91 0.85 0.83 0.91 0.88 0.86 0.85 0.84 0.89 0.90 0.96 0.98 1.05 1.23 1.27 1.49 1.82 2.08
0.27 0.27 0.25 0.23 0.18 0.17 0.19 0.21 0.31 0.48 0.65 0.82 0.91 0.88 0.79 0.68 0.65 0.63 0.60 0.57 0.55 0.51 0.51 0.55 0.62 0.71 0.75 0.96 0.91 0.75 0.71 0.77 0.83 0.88 0.87 0.89 0.84 0.82 0.89 1.02 1.15 1.45 1.66
0.22 0.22 0.21 0.21 0.19 0.18 0.18 0.18 0.23 0.29 0.39 0.52 0.62 0.63 0.57 0.50 0.47 0.50 0.50 0.47 0.42 0.44 0.42 0.42 0.42 0.47 0.62 0.70 0.55 0.53 0.59 0.72 0.84 0.91 0.94 0.90 0.84 0.89 0.90 0.92 0.93 1.00 1.18
0.20 0.20 0.20 0.19 0.16 0.15 0.14 0.16 0.18 0.20 0.22 0.27 0.32 0.34 0.35 0.35 0.35 0.37 0.37 0.37 0.37 0.37 0.36 0.41 0.47 0.48 0.50 0.56 0.46 0.46 0.56 0.75 0.88 0.88 0.84 0.91 0.92 0.94 1.01 0.94 1.01 0.97 0.95
0.11 0.10 0.10 0.09 0.07 0.07 0.07 0.08 0.09 0.10 0.10 0.11 0.14 0.16 0.19 0.22 0.27 0.29 0.33 0.42 0.44 0.41 0.41 0.51 0.57 0.51 0.44 0.50 0.50 0.55 0.69 0.82 0.90 0.87 0.86 0.94 0.98 1.11 1.16 1.07 1.12 1.08 1.04
0.03 0.03 0.03 0.03 0.02 0.02 0.03 0.03 0.04 0.05 0.06 0.06 0.07 0.09 0.11 0.13 0.18 0.23 0.26 0.27 0.29 0.34 0.41 0.43 0.40 0.41 0.47 0.54 0.52 0.64 0.82 0.95 1.04 1.00 0.99 1.18 1.13 1.11 1.06 1.03 1.18 1.15 1.01
0.01 0.01 0.01 0.01 0.01 0.01 0.02 0.02 0.02 0.03 0.04 0.06 0.08 0.11 0.11 0.11 0.12 0.11 0.09 0.12 0.17 0.19 0.21 0.22 0.27 0.34 0.49 0.54 0.57 0.77 0.86 0.93 1.08 1.10 1.06 0.99 1.13 1.07 0.99 0.99 1.04 1.18 1.07
0.01 0.01 0.01 0.01 0.01 0.01 0.01 0.02 0.02 0.03 0.03 0.05 0.07 0.08 0.07 0.06 0.07 0.07 0.06 0.07 0.10 0.12 0.15 0.17 0.23 0.29 0.36 0.43 0.49 0.62 0.75 0.84 1.00 1.08 0.98 0.88 1.11 1.07 0.98 0.90 0.92 1.07 1.14
0.01 0.01 0.01 0.02 0.01 0.02 0.02 0.02 0.03 0.03 0.03 0.04 0.06 0.06 0.06 0.07 0.06 0.05 0.06 0.06 0.07 0.09 0.11 0.16 0.22 0.31 0.36 0.37 0.44 0.50 0.59 0.71 0.89 0.94 0.95 0.97 1.01 0.93 0.89 0.97 1.01 1.04 1.06
0.01 0.01 0.01 0.02 0.02 0.02 0.03 0.03 0.04 0.04 0.05 0.05 0.05 0.07 0.07 0.08 0.07 0.06 0.07 0.06 0.06 0.08 0.12 0.19 0.26 0.30 0.35 0.37 0.46 0.55 0.57 0.66 0.74 0.76 0.79 0.82 0.80 0.79 0.84 0.90 1.00 1.05 1.10
0.01 0.01 0.01 0.01 0.02 0.03 0.03 0.03 0.04 0.03 0.03 0.04 0.06 0.06 0.08 0.09 0.06 0.05 0.06 0.06 0.06 0.09 0.14 0.18 0.22 0.24 0.27 0.33 0.43 0.58 0.66 0.76 0.84 0.86 0.77 0.78 0.78 0.77 0.77 0.82 0.85 0.90 0.91
0.01 0.01 0.01 0.01 0.02 0.03 0.03 0.04 0.04 0.04 0.03 0.04 0.05 0.06 0.06 0.06 0.06 0.07 0.06 0.05 0.05 0.06 0.07 0.08 0.12 0.19 0.22 0.21 0.25 0.36 0.53 0.71 0.96 1.20 1.16 1.14 1.06 0.97 0.86 0.78 0.73 0.72 0.75